Location: Hobi?a Gr?di?te
(45.4833°N, 22.7833°E)
Time: 11:02:03
(UTC+00:00)

ATLAS 5 CENTAUR R/B - Pass Details

Date: 28 January 2023
Orbit: 460 x 1178 km, 63.3° (Epoch: 24 March)

Event Time Altitude Azimuth Distance (km) Brightness Sun altitude
Rises 17:14:59 0° 279° (W) 2,572 6.2 -18.5°
Reaches altitude 10° 17:18:11 10° 311° (NW) 1,784 4.5 -19.1°
Maximum altitude 17:19:57 13° 338° (NNW) 1,685 4.0 -19.4°
Drops below altitude 10° 17:21:51 10° 4° (N) 1,922 4.0 -19.7°
Enters shadow 17:22:25 - 11° (N) 2,049 4.1 -19.8°
